Haines, AK

11:42 PM AKDT on September 23, 2017 (GMT -0800)
Haines

Weather History for PAHN - November, 2011

Change the Weather History Date:

Wednesday, November 23, 2011

  Actual Average Record
Temperature  
Mean Temperature 24 °F -  
Max Temperature 30 °F 33 °F 51 °F (2005)
Min Temperature 19 °F 26 °F 4 °F (1990)
Degree Days  
Heating Degree Days 40    
Moisture  
Dew Point 21 °F    
Average Humidity 91    
Maximum Humidity 100    
Minimum Humidity 75    
Precipitation  
Precipitation 0.38 in - - ()
Sea Level Pressure  
Sea Level Pressure 29.00 in    
Wind  
Wind Speed 5 mph (WNW)    
Max Wind Speed 16 mph    
Max Gust Speed -    
Visibility 3 miles    
Events Fog , Snow    
Averages and records for this station are not official NWS values.
T = Trace of Precipitation, MM = Missing Value Source: NWS Daily Summary

Daily Weather History Graph

Daily Weather History Graph

Search for Another Location

Airport or City:

Trip Planner

Search our weather history database for the weather conditions in past years. The results will help you decide how hot, cold, wet, or windy it might be!

Date:

Astronomy

Nov. 23, 2011 Rise Set
Actual Time 8:14 AM AKST 3:22 PM AKST
Civil Twilight 7:24 AM AKST 4:12 PM AKST
Nautical Twilight 6:32 AM AKST 5:04 PM AKST
Astronomical Twilight 5:43 AM AKST 5:52 PM AKST
Moon 6:18 AM AKST (11/23) 2:14 PM AKST (11/23)
Length of Visible Light 8h 48m
Length of Day
7h 08m
Waning Crescent, 3% of the Moon is Illuminated
Nov 23
Waning Crescent
Nov 24
New
Dec 2
First Quarter
Dec 10
Full
Dec 17
Last Quarter

Hourly Weather History & Observations

Time (AKST) Temp. Windchill Dew Point Humidity Pressure Visibility Wind Dir Wind Speed Gust Speed Precip Events Conditions
12:54 AM 23.0 °F 18.4 °F 19.9 °F 88% 29.03 in 10.0 mi Variable 3.5 mph - 0.00 in   Overcast
1:45 AM 19.4 °F 14.3 °F 17.6 °F 93% 29.03 in 2.5 mi NW 3.5 mph - 0.00 in Snow Light Snow
1:54 AM 19.9 °F - 18.0 °F 92% 29.03 in 1.0 mi Calm Calm - 0.00 in Snow Light Snow
1:59 AM 19.4 °F 14.3 °F 19.4 °F 100% 29.02 in 0.8 mi WNW 3.5 mph - 0.00 in Snow Light Snow
2:11 AM 21.2 °F 16.4 °F 19.4 °F 93% 29.01 in 1.2 mi East 3.5 mph - 0.01 in Snow Light Snow
2:19 AM 21.2 °F - 19.4 °F 93% 29.01 in 2.0 mi Calm Calm - 0.01 in Snow Light Snow
2:41 AM 21.2 °F - 19.4 °F 93% 29.01 in 2.5 mi Calm Calm - 0.01 in Snow Light Snow
2:54 AM 21.0 °F 14.6 °F 19.0 °F 92% 29.02 in 4.0 mi West 4.6 mph - 0.01 in Snow Light Snow
3:06 AM 19.4 °F 14.3 °F 17.6 °F 93% 29.01 in 8.0 mi WNW 3.5 mph - 0.00 in Snow Light Snow
3:54 AM 21.0 °F - 19.0 °F 92% 29.00 in 10.0 mi Calm Calm - 0.00 in   Overcast
4:32 AM 21.2 °F - 19.4 °F 93% 29.01 in 5.0 mi Calm Calm - 0.00 in Snow Light Snow
4:46 AM 24.8 °F 20.5 °F 21.2 °F 86% 29.00 in 1.8 mi SE 3.5 mph - 0.00 in Snow Light Snow
4:54 AM 25.0 °F 20.7 °F 23.0 °F 92% 29.00 in 1.0 mi South 3.5 mph - 0.00 in Snow Light Snow
5:06 AM 24.8 °F 20.5 °F 21.2 °F 86% 28.99 in 2.0 mi Variable 3.5 mph - 0.00 in Snow Light Snow
5:14 AM 26.6 °F 18.2 °F 23.0 °F 86% 28.98 in 3.0 mi NNE 8.1 mph - 0.00 in Snow Light Snow
5:30 AM 30.2 °F - 23.0 °F 75% 28.99 in 1.8 mi Calm Calm - 0.00 in Snow Light Snow
5:37 AM 28.4 °F - 24.8 °F 86% 28.99 in 0.8 mi Calm Calm - 0.00 in Snow Light Snow
5:49 AM 26.6 °F 17.5 °F 24.8 °F 93% 28.99 in 0.8 mi South 9.2 mph - 0.01 in Snow Light Snow
5:54 AM 26.1 °F 16.8 °F 24.1 °F 92% 28.99 in 0.5 mi South 9.2 mph - 0.01 in Fog , Snow Snow
6:08 AM 26.6 °F 16.8 °F 24.8 °F 93% 28.98 in 2.0 mi South 10.4 mph - 0.01 in Snow Light Snow
6:13 AM 26.6 °F - 24.8 °F 93% 28.98 in 4.0 mi Calm Calm - 0.01 in Snow Light Snow
6:24 AM 26.6 °F 20.0 °F 23.0 °F 86% 28.99 in 8.0 mi SSW 5.8 mph - 0.01 in Snow Light Snow
6:31 AM 26.6 °F 20.0 °F 21.2 °F 80% 28.99 in 5.0 mi NW 5.8 mph - 0.01 in Snow Light Snow
6:36 AM 26.6 °F 20.0 °F 23.0 °F 86% 28.99 in 2.5 mi NW 5.8 mph - 0.01 in Snow Light Snow
6:45 AM 26.6 °F 21.2 °F 24.8 °F 93% 29.00 in 1.0 mi NW 4.6 mph - 0.01 in Snow Light Snow
6:47 AM 26.6 °F 20.0 °F 24.8 °F 93% 29.00 in 0.8 mi NW 5.8 mph - 0.02 in Snow Light Snow
6:54 AM 27.0 °F 21.6 °F 24.1 °F 89% 29.01 in 0.5 mi NW 4.6 mph - 0.03 in Fog , Snow Snow
7:03 AM 26.6 °F 17.5 °F 24.8 °F 93% 29.00 in 0.5 mi WNW 9.2 mph - 0.01 in Fog , Snow Snow
7:10 AM 24.8 °F 14.0 °F 24.8 °F 100% 29.01 in 0.2 mi WNW 11.5 mph - 0.02 in Fog , Snow Heavy Snow
7:20 AM 24.8 °F 16.9 °F 23.0 °F 93% 29.02 in 0.5 mi WNW 6.9 mph - 0.03 in Fog , Snow Snow
7:28 AM 26.6 °F 18.2 °F 24.8 °F 93% 29.02 in 0.2 mi NW 8.1 mph - 0.05 in Fog , Snow Heavy Snow
7:35 AM 26.6 °F 19.1 °F 24.8 °F 93% 29.02 in 0.5 mi NW 6.9 mph - 0.06 in Fog , Snow Snow
7:54 AM 24.1 °F 19.7 °F 21.9 °F 91% 29.04 in 0.5 mi NNW 3.5 mph - 0.09 in Fog , Snow Snow
8:27 AM 24.8 °F - 23.0 °F 93% 29.03 in 2.0 mi Calm Calm - 0.04 in Snow Light Snow
8:35 AM 24.8 °F 20.5 °F 23.0 °F 93% 29.03 in 5.0 mi NW 3.5 mph - 0.04 in Snow Light Snow
8:54 AM 25.0 °F - 23.0 °F 92% 29.03 in 5.0 mi Calm Calm - 0.04 in Snow Light Snow
9:35 AM 23.0 °F - 21.2 °F 93% 29.03 in 7.0 mi Calm Calm - 0.00 in Snow Light Snow
9:54 AM 21.9 °F 14.5 °F 19.0 °F 89% 29.04 in 5.0 mi WNW 5.8 mph - 0.00 in Snow Light Snow
10:01 AM 21.2 °F 12.6 °F 19.4 °F 93% 29.03 in 8.0 mi WNW 6.9 mph - 0.00 in Snow Light Snow
10:54 AM 23.0 °F 13.1 °F 21.0 °F 92% 29.02 in 1.5 mi West 9.2 mph - 0.00 in Snow Light Snow
11:01 AM 21.2 °F 10.9 °F 19.4 °F 93% 29.01 in 5.0 mi WNW 9.2 mph - 0.00 in   Mostly Cloudy
11:22 AM 23.0 °F 12.4 °F 21.2 °F 93% 29.01 in 8.0 mi WNW 10.4 mph - 0.00 in Snow Light Snow
11:54 AM 23.0 °F 14.7 °F 21.0 °F 92% 29.01 in 2.5 mi WNW 6.9 mph - 0.00 in Snow Light Snow
12:03 PM 23.0 °F 14.7 °F 21.2 °F 93% 29.00 in 1.2 mi West 6.9 mph - 0.00 in Snow Light Snow
12:14 PM 24.8 °F 16.1 °F 21.2 °F 86% 29.00 in 0.8 mi WNW 8.1 mph - 0.00 in Snow Light Snow
12:37 PM 24.8 °F 16.9 °F 23.0 °F 93% 29.00 in 0.8 mi WNW 6.9 mph - 0.01 in Snow Light Snow
12:54 PM 24.1 °F 17.0 °F 23.0 °F 96% 29.01 in 0.8 mi WNW 5.8 mph - 0.01 in Snow Light Snow
1:08 PM 24.8 °F 17.9 °F 23.0 °F 93% 29.00 in 1.2 mi West 5.8 mph - 0.00 in Snow Light Snow
1:17 PM 23.0 °F 15.8 °F 21.2 °F 93% 28.99 in 1.0 mi WNW 5.8 mph - 0.01 in Snow Light Snow
1:41 PM 24.8 °F 19.1 °F 21.2 °F 86% 28.99 in 2.5 mi WNW 4.6 mph - 0.01 in Snow Light Snow
1:45 PM 24.8 °F 20.5 °F 21.2 °F 86% 28.98 in 4.0 mi WNW 3.5 mph - 0.01 in Snow Light Snow
1:54 PM 24.1 °F 18.2 °F 21.9 °F 91% 28.99 in 8.0 mi WNW 4.6 mph - 0.01 in   Overcast
2:54 PM 24.1 °F 15.2 °F 21.9 °F 91% 28.99 in 6.0 mi WNW 8.1 mph - 0.00 in Snow Light Snow
3:54 PM 24.1 °F 14.4 °F 21.9 °F 91% 28.98 in 10.0 mi WNW 9.2 mph - 0.00 in   Overcast
4:54 PM 24.1 °F 14.4 °F 21.9 °F 91% 28.97 in 5.0 mi WNW 9.2 mph - 0.00 in Snow Light Snow
5:01 PM 24.8 °F 15.3 °F 21.2 °F 86% 28.96 in 2.5 mi WNW 9.2 mph - 0.00 in Snow Light Snow
5:13 PM 24.8 °F 15.3 °F 21.2 °F 86% 28.96 in 1.8 mi WNW 9.2 mph - 0.00 in Snow Light Snow
5:24 PM 23.0 °F 13.1 °F 21.2 °F 93% 28.96 in 2.5 mi WNW 9.2 mph - 0.00 in Snow Light Snow
5:32 PM 23.0 °F 12.4 °F 21.2 °F 93% 28.96 in 5.0 mi WNW 10.4 mph - 0.00 in Snow Light Snow
5:54 PM 23.0 °F 11.7 °F 21.0 °F 92% 28.95 in 9.0 mi WNW 11.5 mph - 0.00 in   Overcast
6:54 PM 21.9 °F 9.2 °F 19.9 °F 92% 28.95 in 9.0 mi WNW 13.8 mph - 0.00 in   Overcast
7:54 PM 21.9 °F 11.0 °F 19.0 °F 89% 28.94 in 7.0 mi WNW 10.4 mph - 0.00 in Snow Light Snow
8:34 PM 21.2 °F 8.3 °F 19.4 °F 93% 28.95 in 1.8 mi WNW 13.8 mph - 0.00 in Snow Light Snow
8:45 PM 21.2 °F 7.3 °F 19.4 °F 93% 28.95 in 0.8 mi WNW 16.1 mph - 0.00 in Snow Light Snow
8:52 PM 23.0 °F 10.1 °F 19.4 °F 86% 28.95 in 0.5 mi WNW 15.0 mph - 0.00 in Fog , Snow Snow
8:54 PM 23.0 °F 10.6 °F 19.9 °F 88% 28.96 in 0.5 mi WNW 13.8 mph - 0.00 in Fog , Snow Snow
9:01 PM 21.2 °F 9.5 °F 19.4 °F 93% 28.96 in 0.2 mi WNW 11.5 mph - 0.01 in Fog , Snow Heavy Snow
9:18 PM 21.2 °F 10.1 °F 19.4 °F 93% 28.96 in 0.2 mi WNW 10.4 mph - 0.03 in Fog , Snow Heavy Snow
9:54 PM 21.9 °F 11.7 °F 19.9 °F 92% 29.00 in 0.2 mi WNW 9.2 mph - 0.11 in Fog , Snow Heavy Snow
10:11 PM 21.2 °F 10.1 °F 19.4 °F 93% 29.00 in 0.5 mi West 10.4 mph - 0.02 in Fog , Snow Snow
10:48 PM 21.2 °F 11.7 °F 19.4 °F 93% 29.01 in 1.0 mi WNW 8.1 mph - 0.06 in Snow Light Snow
10:54 PM 21.0 °F 12.4 °F 19.0 °F 92% 29.02 in 1.2 mi WNW 6.9 mph - 0.06 in Snow Light Snow
11:09 PM 21.2 °F 11.7 °F 19.4 °F 93% 29.01 in 2.0 mi WNW 8.1 mph - 0.00 in Snow Light Snow
11:27 PM 21.2 °F 9.5 °F 17.6 °F 86% 29.02 in 3.0 mi WNW 11.5 mph - 0.01 in Snow Light Snow
11:54 PM 21.0 °F 13.4 °F 19.0 °F 92% 29.04 in 9.0 mi WNW 5.8 mph - 0.01 in   Overcast